This is the latest recevied weather packets stored in our database for station/object K7FLA. If no packets are shown the sender has not sent any weather packets the latest 10 day(s).
| Time | Temp. | Humidity | Pressure | Rain* | Wind** | Luminosity | Snow |
|---|---|---|---|---|---|---|---|
| 1778027383 | 13.89° C | 58% | 1094 hPa | 0 mm | - | 14 W/m² | - |
| 1778027079 | 13.89° C | 57% | 1093.9 hPa | 0 mm | - | 19 W/m² | - |
| 1778026775 | 14.44° C | 57% | 1093.7 hPa | 0 mm | - | 33 W/m² | - |
| 1778026472 | 14.44° C | 56% | 1093.8 hPa | 0 mm | - | 26 W/m² | - |
| 1778026169 | 14.44° C | 56% | 1094.1 hPa | 0 mm | - | 25 W/m² | - |
| 1778025867 | 14.44° C | 56% | 1093.9 hPa | 0 mm | - | 28 W/m² | - |
| 1778025563 | 15° C | 55% | 1093.9 hPa | 0 mm | - | 31 W/m² | - |
| 1778025262 | 15° C | 55% | 1093.6 hPa | 0 mm | - | 38 W/m² | - |
| 1778024958 | 15° C | 55% | 1093.6 hPa | 0 mm | - | 44 W/m² | - |
| 1778024656 | 15.56° C | 53% | 1093.7 hPa | 0 mm | - | 56 W/m² | - |
| 1778024352 | 15.56° C | 54% | 1093.7 hPa | 0 mm | - | 63 W/m² | - |
| 1778024050 | 15.56° C | 53% | 1093.6 hPa | 0 mm | - | 105 W/m² | - |
| 1778023747 | 15.56° C | 53% | 1093.7 hPa | 0 mm | - | 169 W/m² | - |
| 1778023445 | 15.56° C | 52% | 1093.5 hPa | 0 mm | - | 144 W/m² | - |
| 1778023141 | 15.56° C | 53% | 1093.4 hPa | 0 mm | - | 98 W/m² | - |
| 1778022839 | 15.56° C | 52% | 1093.5 hPa | 0 mm | - | 106 W/m² | - |
| 1778022537 | 16.11° C | 52% | 1093.5 hPa | 0 mm | - | 166 W/m² | - |
| 1778022234 | 16.11° C | 53% | 1093.7 hPa | 0 mm | - | 188 W/m² | - |
| 1778021931 | 16.11° C | 51% | 1093.6 hPa | 0 mm | - | 161 W/m² | - |
| 1778021628 | 16.67° C | 51% | 1093.5 hPa | 0 mm | - | 153 W/m² | - |
| 1778021323 | 16.67° C | 50% | 1093.7 hPa | 0 mm | - | 156 W/m² | - |
| 1778021021 | 17.22° C | 48% | 1093.8 hPa | 0 mm | - | 197 W/m² | - |
| 1778020718 | 17.22° C | 49% | 1093.6 hPa | 0 mm | - | 259 W/m² | - |
| 1778020415 | 17.22° C | 49% | 1093.7 hPa | 0 mm | - | 574 W/m² | - |
| 1778020110 | 17.22° C | 48% | 1093.6 hPa | 0 mm | - | 545 W/m² | - |
* Rain latest hour (hover to see other rain measurements)
** Current wind speed in m/s (hover to see current wind gust speed)